Weather History for KCBG - May, 2013

Change the Weather History Date:

Friday, May 10, 2013

  Actual Average Record
Temperature  
Mean Temperature 48 °F -  
Max Temperature 64 °F 65 °F 87 °F (2007)
Min Temperature 33 °F 42 °F 26 °F (1981)
Degree Days  
Heating Degree Days 16    
Moisture  
Dew Point 39 °F    
Average Humidity 66    
Maximum Humidity 81    
Minimum Humidity 52    
Precipitation  
Precipitation 0.00 in - - ()
Sea Level Pressure  
Sea Level Pressure 30.02 in    
Wind  
Wind Speed 6 mph (NNE)    
Max Wind Speed 9 mph    
Max Gust Speed 17 mph    
Visibility 10 miles    
Events Rain    
Averages and records for this station are not official NWS values.
T = Trace of Precipitation, MM = Missing Value Source: NWS Daily Summary

Daily Weather History Graph

Daily Weather History Graph

Search for Another Location

Airport or City:

Trip Planner

Search our weather history database for the weather conditions in past years. The results will help you decide how hot, cold, wet, or windy it might be!

Date:

Astronomy

May. 10, 2013 Rise Set
Actual Time 5:48 AM CDT 8:31 PM CDT
Civil Twilight 5:14 AM CDT 9:05 PM CDT
Nautical Twilight 4:31 AM CDT 9:49 PM CDT
Astronomical Twilight 3:41 AM CDT 10:39 PM CDT
Moon 6:12 AM CDT (5/10) 9:22 PM CDT (5/10)
Length of Visible Light 15h 51m
Length of Day
14h 43m
New Moon, 0% of the Moon is Illuminated
May 10
New Moon
May 17
First Quarter
May 24
Full
May 31
Last Quarter
Jun 8
New

Hourly Weather History & Observations

Time (CDT) Temp. Windchill Dew Point Humidity Pressure Visibility Wind Dir Wind Speed Gust Speed Precip Events Conditions
12:16 AM 41.0 °F 35.2 °F 33.8 °F 76% 30.13 in 10.0 mi NNE 9.2 mph 17.3 mph N/A   Clear
1:16 AM 39.2 °F 33.6 °F 32.0 °F 75% 30.13 in 10.0 mi NNE 8.1 mph 17.3 mph N/A   Clear
1:35 AM 37.4 °F 32.8 °F 32.0 °F 81% 30.13 in 10.0 mi North 5.8 mph - N/A   Clear
1:56 AM 37.4 °F 31.4 °F 30.2 °F 75% 30.13 in 10.0 mi NNE 8.1 mph - N/A   Clear
2:15 AM 37.4 °F 31.4 °F 30.2 °F 75% 30.13 in 10.0 mi NNE 8.1 mph - N/A   Clear
2:35 AM 35.6 °F 29.2 °F 30.2 °F 81% 30.13 in 10.0 mi NNE 8.1 mph - N/A   Clear
2:56 AM 35.6 °F 29.2 °F 30.2 °F 81% 30.12 in 10.0 mi North 8.1 mph - N/A   Clear
3:15 AM 35.6 °F 30.7 °F 30.2 °F 81% 30.12 in 10.0 mi North 5.8 mph - N/A   Clear
3:36 AM 35.6 °F 30.7 °F 30.2 °F 81% 30.12 in 10.0 mi NNE 5.8 mph - N/A   Clear
3:56 AM 35.6 °F 30.7 °F 28.4 °F 75% 30.12 in 10.0 mi North 5.8 mph - N/A   Clear
4:15 AM 35.6 °F 32.8 °F 28.4 °F 75% 30.12 in 10.0 mi NNE 3.5 mph - N/A   Clear
4:36 AM 33.8 °F 30.8 °F 28.4 °F 81% 30.12 in 10.0 mi NNE 3.5 mph - N/A   Clear
4:55 AM 33.8 °F 28.6 °F 28.4 °F 81% 30.12 in 10.0 mi North 5.8 mph - N/A   Clear
5:16 AM 33.8 °F 28.6 °F 28.4 °F 81% 30.12 in 10.0 mi NNE 5.8 mph - N/A   Clear
5:35 AM 33.8 °F 28.6 °F 28.4 °F 81% 30.12 in 10.0 mi NNE 5.8 mph - N/A   Clear
5:56 AM 33.8 °F 30.8 °F 28.4 °F 81% 30.12 in 10.0 mi North 3.5 mph - N/A   Clear
6:15 AM 33.8 °F 29.6 °F 28.4 °F 81% 30.12 in 10.0 mi NNE 4.6 mph - N/A   Clear
6:36 AM 33.8 °F 28.6 °F 28.4 °F 81% 30.12 in 10.0 mi NNE 5.8 mph - N/A   Clear
7:16 AM 35.6 °F 29.9 °F 30.2 °F 81% 30.12 in 10.0 mi NNE 6.9 mph - N/A   Clear
7:35 AM 37.4 °F 31.4 °F 30.2 °F 75% 30.12 in 10.0 mi NE 8.1 mph - N/A   Clear
8:15 AM 39.2 °F 34.2 °F 32.0 °F 75% 30.12 in 10.0 mi NE 6.9 mph - N/A   Clear
8:36 AM 39.2 °F 34.2 °F 32.0 °F 75% 30.12 in 10.0 mi NE 6.9 mph - N/A   Clear
8:55 AM 41.0 °F 36.4 °F 33.8 °F 76% 30.11 in 10.0 mi NE 6.9 mph - N/A   Clear
9:15 AM 42.8 °F 38.6 °F 33.8 °F 70% 30.11 in 10.0 mi NNE 6.9 mph - N/A   Clear
9:35 AM 42.8 °F 38.6 °F 33.8 °F 70% 30.11 in 10.0 mi North 6.9 mph - N/A   Clear
9:56 AM 44.6 °F 40.2 °F 35.6 °F 71% 30.10 in 10.0 mi NE 8.1 mph - N/A   Clear
10:15 AM 46.4 °F 43.5 °F 35.6 °F 66% 30.10 in 10.0 mi North 5.8 mph - N/A   Clear
10:36 AM 48.2 °F - 35.6 °F 62% 30.09 in 10.0 mi ENE 4.6 mph - N/A   Clear
10:55 AM 48.2 °F - 37.4 °F 66% 30.09 in 10.0 mi North 5.8 mph - N/A   Clear
11:16 AM 50.0 °F - 37.4 °F 62% 30.09 in 10.0 mi North 6.9 mph - N/A   Clear
11:35 AM 51.8 °F - 39.2 °F 62% 30.08 in 10.0 mi North 6.9 mph - N/A   Clear
12:16 PM 53.6 °F - 41.0 °F 62% 30.07 in 10.0 mi North 6.9 mph - N/A   Clear
12:35 PM 55.4 °F - 41.0 °F 58% 30.06 in 10.0 mi East 4.6 mph - N/A   Clear
12:56 PM 55.4 °F - 42.8 °F 63% 30.05 in 10.0 mi NNW 4.6 mph - N/A   Clear
1:15 PM 55.4 °F - 42.8 °F 63% 30.04 in 10.0 mi Calm Calm - N/A   Clear
1:36 PM 57.2 °F - 42.8 °F 59% 30.03 in 10.0 mi Calm Calm - N/A   Clear
1:55 PM 57.2 °F - 42.8 °F 59% 30.03 in 10.0 mi Calm Calm - N/A   Clear
2:16 PM 59.0 °F - 44.6 °F 59% 30.02 in 10.0 mi Calm Calm - N/A   Clear
2:35 PM 60.8 °F - 44.6 °F 55% 30.01 in 10.0 mi Calm Calm - N/A   Clear
2:55 PM 60.8 °F - 44.6 °F 55% 30.00 in 10.0 mi ESE 3.5 mph - N/A   Clear
3:15 PM 62.6 °F - 46.4 °F 55% 29.99 in 10.0 mi Calm Calm - N/A   Clear
3:36 PM 62.6 °F - 44.6 °F 52% 29.98 in 10.0 mi Calm Calm - N/A   Clear
3:56 PM 62.6 °F - 46.4 °F 55% 29.97 in 10.0 mi WSW 5.8 mph - N/A   Clear
4:15 PM 64.4 °F - 46.4 °F 52% 29.96 in 10.0 mi Calm Calm - N/A   Clear
4:36 PM 64.4 °F - 46.4 °F 52% 29.95 in 10.0 mi NNW 5.8 mph - N/A   Clear
4:56 PM 64.4 °F - 46.4 °F 52% 29.95 in 10.0 mi SSW 3.5 mph - N/A   Clear
5:36 PM 64.4 °F - 46.4 °F 52% 29.93 in 10.0 mi Calm Calm - N/A   Clear
5:55 PM 64.4 °F - 46.4 °F 52% 29.93 in 10.0 mi SW 5.8 mph - N/A   Clear
6:16 PM 64.4 °F - 46.4 °F 52% 29.92 in 10.0 mi WSW 5.8 mph 9.2 mph N/A   Clear
6:35 PM 64.4 °F - 46.4 °F 52% 29.91 in 10.0 mi WSW 8.1 mph - N/A   Clear
6:56 PM 64.4 °F - 46.4 °F 52% 29.91 in 10.0 mi WSW 9.2 mph - N/A   Clear
7:16 PM 62.6 °F - 46.4 °F 55% 29.90 in 10.0 mi SW 4.6 mph - N/A   Clear
7:35 PM 62.6 °F - 46.4 °F 55% 29.90 in 10.0 mi WSW 5.8 mph - N/A   Clear
7:56 PM 62.6 °F - 44.6 °F 52% 29.88 in 10.0 mi Calm Calm - N/A   Clear
8:15 PM 62.6 °F - 44.6 °F 52% 29.88 in 10.0 mi Calm Calm - N/A   Clear
8:36 PM 60.8 °F - 44.6 °F 55% 29.88 in 10.0 mi Calm Calm - N/A   Scattered Clouds
8:56 PM 59.0 °F - 44.6 °F 59% 29.88 in 10.0 mi Calm Calm - N/A   Mostly Cloudy
9:15 PM 57.2 °F - 44.6 °F 63% 29.88 in 10.0 mi Calm Calm - N/A   Overcast
9:36 PM 55.4 °F - 44.6 °F 67% 29.88 in 10.0 mi Calm Calm - N/A   Mostly Cloudy
9:56 PM 57.2 °F - 44.6 °F 63% 29.87 in 10.0 mi SSE 3.5 mph - N/A   Overcast
10:15 PM 57.2 °F - 44.6 °F 63% 29.87 in 10.0 mi SSE 3.5 mph - N/A Rain Light Rain
10:36 PM 57.2 °F - 44.6 °F 63% 29.86 in 10.0 mi South 3.5 mph - N/A   Scattered Clouds
10:55 PM 57.2 °F - 44.6 °F 63% 29.86 in 10.0 mi South 3.5 mph - N/A Rain Light Rain
11:16 PM 57.2 °F - 44.6 °F 63% 29.86 in 10.0 mi Calm Calm - N/A   Mostly Cloudy
11:35 PM 55.4 °F - 44.6 °F 67% 29.86 in 10.0 mi Calm Calm - N/A Rain Light Rain
11:55 PM 55.4 °F - 44.6 °F 67% 29.88 in 10.0 mi WSW 3.5 mph - N/A Rain Light Rain